Main page
METAR-TAF:

METAR-TAF

Airports :

Jask, Iran

latitude: 26-38N, longitude: 057-46E, elevation: 3 m

Current weather observation

The report was made 1 hour and 4 minutes ago, at 03:00 UTC
Wind 12 kt from the East/Northeast
Temperature 26°C
Humidity 100%
Pressure 1012 hPa
Visibility: 4000 m
Few clouds at a height of 1500 ft
mist

METAR: OIZJ 240300Z 07012KT 4000 BR FEW015 26/26 Q1012

Time: 07:34 (04:04 UTC)


TAF: missing

Weather observations and forecasts of more than 4000 airports (METAR and TAF reports).

The available stations are represented by yellow and red dots on the map.

Hover mouse over dot to see the name of the station.

Then click to see weather observations and forecasts.

To change the map : click on the green buttons with a black cross to zoom in, on the green button with a dash to zoom out, or on the green arrows for adjacent maps.


METAR-TAF: